Retour au catalogue

STARLINK-37904

ActifCommunicationsVLEO
NORAD 69947·PAYLOAD·🇺🇸 United States

Lancé Jul 9, 2026 depuis Cape Canaveral Space Force Station

Loading…

Prochains Passages (prochaines 24 heures)

TLE

FraisSource: CelesTrak SupGP

Époque: Sep 15, 2026, 03:06 UTC

1 69947C 26157E   26258.12965278  .00066758  00000+0  19722-2 0  2581
2 69947  53.1598 358.7741 0001155  87.8931 106.9615 15.34360386    19

Suivez STARLINK-37904 en temps réel avec AllMySat

Download on the App Store